AirNav   Pilot Hours Calculator
 
 893 users online  

OR87 Blue Skies Farm Airport
Salem, Oregon, USA

GOING TO SALEM?


FAA INFORMATION EFFECTIVE 08 OCTOBER 2020

Location

FAA Identifier: OR87
Lat/Long: 44-57-58.0000N 122-55-21.0000W
44-57.966667N 122-55.350000W
44.9661111,-122.9225000
(estimated)
Elevation: 200 ft. / 61 m (estimated)
From city: 6 miles NE of SALEM, OR
Time zone: UTC -7 (UTC -8 during Standard Time)
Zip code: 97301

Airport Operations

Airport use: Private use. Permission required prior to landing
Activation date: 06/2009
Control tower: no
ARTCC: SEATTLE CENTER
FSS: MC MINNVILLE FLIGHT SERVICE STATION
Attendance: UNATNDD
Wind indicator: yes
Segmented circle: no

Airport Communications

WX ASOS at SLE (5 nm SW): 124.55 (503-371-1062)
WX ASOS at MMV (16 nm NW): 135.675 (503-434-9153)
WX ASOS at UAO (18 nm N): PHONE 503-678-3011

Nearby radio navigation aids

VOR radial/distance  VOR name  Freq  Var
UBGr153/23.3NEWBERG VOR/DME117.4021E
CVOr011/32.2CORVALLIS VOR/DME115.4018E

 
NDB name  Hdg/Dist  Freq  Var  ID
TURNO353/7.226617ESL ... .-..
LEWISBURG020/25.822515ELWG .-.. .-- --.

Airport Services

Runway Information

Runway 1/19

Dimensions: 1345 x 45 ft. / 410 x 14 m
Surface: turf, in good condition
RUNWAY 1  RUNWAY 19
Traffic pattern: leftright
Obstructions: 100 ft. tree, 3000 ft. from runway30 ft. pline

Airport Ownership and Management from official FAA records

Ownership: Privately-owned
Owner: BRIAN AND LINDA SCHAFFNER
6840 LARDON RD NE
SALEM, OR 97305
Phone 503-881-8840
Manager: BRIAN SCHAFFNER
6840 LARDON RD NE
SALEM, OR 97305
Phone 503-881-8840

Airport Operational Statistics

Aircraft based on the field: 1
Single engine airplanes: 1
    

Additional Remarks

FOR CD CTC SEATTLE ARTCC AT 253-351-3694.

Instrument Procedures

There are no published instrument procedures at OR87.

Some nearby airports with instrument procedures:

KSLE - McNary Field Airport (5 nm SW)
KMMV - Mc Minnville Municipal Airport (16 nm NW)
KUAO - Aurora State Airport (18 nm N)
S12 - Albany Municipal Airport (21 nm S)
KCVO - Corvallis Municipal Airport (32 nm SW)
 
Loc | Ops | Rwys | IFR | FBO | Links
Com | Nav | Svcs | Stats | Notes
Aerial photo
No photo
 
Sectional chart

 
Airport distance calculator
Flying to Blue Skies Farm Airport? Find the distance to fly.

From to OR87

Sunrise and sunset
Times for 30-Oct-2020
 Local
(UTC-7)
 Zulu
(UTC)
Morning civil twilight07:1914:19
Sunrise07:5014:50
Sunset18:0101:01
Evening civil twilight18:3101:31

Current date and time
Zulu (UTC)  31-Oct-2020 02:37:56
Local (UTC-7)  30-Oct-2020 19:37:56
 
METAR
KSLE 
5nm SW 
310156Z 30006KT 10SM CLR 12/04 A3020 RMK AO2 SLP228 T01220044
KMMV 
17nm NW 
310153Z AUTO 34004KT 10SM CLR 12/06 A3021 RMK AO2 SLP229 T01170056
KUAO 
18nm N 
310153Z 36003KT 10SM FEW045 13/07 A3022 RMK AO2 SLP233 T01280072
TAF
KSLE 
5nm SW 
301934Z 3020/3118 24007KT 2SM SHRA BR BKN007 OVC025 FM302100 33008KT 5SM BR BKN025 OVC040 FM302200 30007KT P6SM VCSH SCT025 BKN040 FM302300 31004KT P6SM SCT040 FM310900 00000KT 1/2SM FG VV002
KUAO 
18nm N 
301932Z 3020/3118 20008KT 2SM SHRA BR BKN015 OVC025 FM302015 32007KT 5SM BR BKN025 OVC040 FM302030 30007KT P6SM VCSH SCT025 BKN040 FM302200 31004KT P6SM SCT040 FM311000 00000KT 1SM BR BKN004 FM311300 00000KT 1/2SM FG VV002
NOTAMs
Click for the latest NOTAMs
NOTAMs are issued by the DoD/FAA and will open in a separate window not controlled by AirNav.

 

 
 

Would you like to see your business listed on this page?

 If your business provides an interesting product or service to pilots, flight crews, aircraft, or users of the Blue Skies Farm Airport, you should consider listing it here.  To start the listing process, click on the button below
 
Add a business
 

Other Pages about Blue Skies Farm Airport

Update a link
 
Copyright © AirNav, LLC. All rights reserved. Privacy Policy  Contact